• In Germany
  • List of Countries
  • For 7 days
  • Water Temperature
  • Satellite Maps
  • Weather Map
  • Weather Widgets
  • user-avatar
    Login

    Hourly Weather Mykhailivtsi

    Today, 16 November, Friday

    Time Temperature Precipitation Wind Pressure Humidity
    00:00 0°C° 0 mm 4 mps 746 mmHg 83%
    01:00 -1°C° 0 mm 4 mps 747 mmHg 84%
    02:00 -1°C° 0 mm 4 mps 747 mmHg 85%
    03:00 -2°C° 0 mm 4 mps 747 mmHg 84%
    04:00 -2°C° 0 mm 4 mps 748 mmHg 83%
    05:00 -2°C° 0 mm 5 mps 748 mmHg 82%
    06:00 -4°C° 0 mm 5 mps 748 mmHg 79%
    07:00 -4°C° 0 mm 5 mps 748 mmHg 77%
    08:00 -4°C° 0 mm 5 mps 748 mmHg 74%
    09:00 -2°C° 0 mm 5 mps 748 mmHg 65%
    10:00 -2°C° 0 mm 6 mps 749 mmHg 56%
    11:00 -1°C° 0 mm 6 mps 749 mmHg 47%
    12:00 -1°C° 0 mm 6 mps 749 mmHg 45%
    13:00 +1°C° 0 mm 6 mps 749 mmHg 43%
    14:00 +1°C° 0 mm 5 mps 748 mmHg 41%
    15:00 0°C° 0 mm 5 mps 749 mmHg 46%
    16:00 -1°C° 0 mm 5 mps 749 mmHg 51%
    17:00 -2°C° 0 mm 5 mps 749 mmHg 55%
    18:00 -2°C° 0 mm 5 mps 749 mmHg 58%
    19:00 -2°C° 0 mm 5 mps 749 mmHg 60%
    20:00 -4°C° 0 mm 5 mps 749 mmHg 63%
    21:00 -4°C° 0 mm 5 mps 749 mmHg 63%
    22:00 -4°C° 0 mm 5 mps 749 mmHg 64%
    23:00 -3°C° 0 mm 4 mps 749 mmHg 64%

    Tomorrow, 17 November, Saturday

    Time Temperature Precipitation Wind Pressure Humidity
    00:00 -3°C° 0 mm 4 mps 749 mmHg 64%
    01:00 -3°C° 0 mm 4 mps 749 mmHg 64%
    02:00 -2°C° 0 mm 3 mps 750 mmHg 64%
    03:00 -2°C° 0 mm 3 mps 750 mmHg 64%
    04:00 -3°C° 0 mm 4 mps 750 mmHg 65%
    05:00 -3°C° 0 mm 4 mps 750 mmHg 66%
    06:00 -4°C° 0 mm 4 mps 750 mmHg 69%
    07:00 -4°C° 0 mm 3 mps 750 mmHg 72%
    08:00 -4°C° 0 mm 3 mps 750 mmHg 75%
    09:00 -2°C° 0 mm 3 mps 750 mmHg 72%
    10:00 -2°C° 0 mm 3 mps 750 mmHg 70%
    11:00 -1°C° 0 mm 3 mps 750 mmHg 67%
    12:00 0°C° 0 mm 3 mps 750 mmHg 65%
    13:00 0°C° 0 mm 3 mps 750 mmHg 64%
    14:00 +1°C° 0 mm 3 mps 749 mmHg 62%
    15:00 +1°C° 0 mm 2 mps 749 mmHg 64%
    16:00 +1°C° 0 mm 2 mps 749 mmHg 66%
    17:00 -1°C° 0 mm 2 mps 749 mmHg 68%
    18:00 -1°C° 0 mm 2 mps 749 mmHg 68%
    19:00 -1°C° 0 mm 2 mps 749 mmHg 67%
    20:00 -1°C° 0 mm 2 mps 748 mmHg 67%
    21:00 -2°C° 0 mm 2 mps 748 mmHg 67%
    22:00 -2°C° 0 mm 2 mps 748 mmHg 67%
    23:00 -1°C° 0 mm 1 mps 748 mmHg 67%

    Day after tomorrow, 18 November, Sunday

    Time Temperature Precipitation Wind Pressure Humidity
    00:00 -1°C° 0 mm 1 mps 747 mmHg 66%
    01:00 -1°C° 0 mm 1 mps 747 mmHg 65%
    02:00 -1°C° 0 mm 1 mps 746 mmHg 64%
    03:00 -1°C° 0 mm 1 mps 746 mmHg 63%
    04:00 -3°C° 0 mm 2 mps 745 mmHg 63%
    05:00 -3°C° 0 mm 2 mps 745 mmHg 62%
    06:00 -3°C° 0 mm 2 mps 744 mmHg 61%
    07:00 -3°C° 0 mm 2 mps 744 mmHg 60%
    08:00 -3°C° 0 mm 2 mps 744 mmHg 60%
    09:00 -2°C° 0 mm 2 mps 743 mmHg 56%
    10:00 +1°C° 0 mm 2 mps 743 mmHg 51%
    11:00 +2°C° 0 mm 2 mps 742 mmHg 47%
    12:00 +2°C° 0 mm 2 mps 742 mmHg 48%
    13:00 +3°C° 0 mm 2 mps 741 mmHg 48%
    14:00 +4°C° 0 mm 2 mps 741 mmHg 48%
    15:00 +3°C° 0 mm 2 mps 740 mmHg 53%
    16:00 +3°C° 0 mm 1 mps 740 mmHg 58%
    17:00 +1°C° 0 mm 1 mps 739 mmHg 63%
    18:00 +1°C° 0 mm 1 mps 739 mmHg 64%
    19:00 +1°C° 0 mm 1 mps 739 mmHg 65%
    20:00 +1°C° 0 mm 1 mps 738 mmHg 67%
    21:00 +1°C° 0 mm 1 mps 738 mmHg 67%
    22:00 +1°C° 0 mm 1 mps 738 mmHg 67%
    23:00 0°C° 0 mm 1 mps 738 mmHg 67%

    19 November, Monday

    Time Temperature Precipitation Wind Pressure Humidity
    00:00 +1°C° 0 mm 1 mps 738 mmHg 66%
    01:00 +1°C° 0 mm 1 mps 737 mmHg 65%
    02:00 +1°C° 0 mm 1 mps 737 mmHg 64%
    03:00 +1°C° 0 mm 1 mps 737 mmHg 64%
    04:00 +1°C° 0 mm 1 mps 737 mmHg 65%
    05:00 0°C° 0 mm 1 mps 737 mmHg 65%
    06:00 0°C° 0 mm 1 mps 737 mmHg 67%
    07:00 0°C° 0 mm 1 mps 737 mmHg 68%
    08:00 0°C° 0 mm 1 mps 737 mmHg 70%
    09:00 -1°C° 0 mm 2 mps 737 mmHg 67%
    10:00 +1°C° 0 mm 2 mps 737 mmHg 64%
    11:00 +2°C° 0 mm 2 mps 737 mmHg 61%
    12:00 +2°C° 0 mm 2 mps 737 mmHg 59%
    13:00 +2°C° 0 mm 3 mps 737 mmHg 57%
    14:00 +2°C° 0 mm 3 mps 737 mmHg 55%
    15:00 +1°C° 0 mm 3 mps 737 mmHg 56%
    16:00 +1°C° 0 mm 3 mps 737 mmHg 57%
    17:00 0°C° 0 mm 3 mps 737 mmHg 58%
    18:00 0°C° 0 mm 3 mps 737 mmHg 58%
    19:00 0°C° 0 mm 3 mps 737 mmHg 58%
    20:00 -1°C° 0 mm 4 mps 737 mmHg 58%
    21:00 -2°C° 0.1 mm 4 mps 737 mmHg 62%
    22:00 -2°C° 0.1 mm 4 mps 737 mmHg 65%
    23:00 -2°C° 0.1 mm 4 mps 738 mmHg 69%

    20 November, Tuesday

    Time Temperature Precipitation Wind Pressure Humidity
    00:00 -2°C° 0.1 mm 4 mps 737 mmHg 73%
    01:00 -1°C° 0.1 mm 3 mps 737 mmHg 77%
    02:00 -2°C° 0.1 mm 3 mps 737 mmHg 81%
    03:00 -2°C° 0.2 mm 3 mps 737 mmHg 84%
    04:00 -2°C° 0.2 mm 3 mps 737 mmHg 88%
    05:00 -2°C° 0.2 mm 4 mps 737 mmHg 92%
    06:00 -2°C° 0.2 mm 4 mps 737 mmHg 92%
    07:00 -2°C° 0.2 mm 4 mps 737 mmHg 93%
    08:00 -1°C° 0.2 mm 4 mps 737 mmHg 93%
    09:00 -1°C° 0 mm 4 mps 737 mmHg 93%
    10:00 0°C° 0 mm 4 mps 737 mmHg 92%
    11:00 0°C° 0 mm 4 mps 737 mmHg 91%
    12:00 +1°C° 0 mm 4 mps 737 mmHg 90%
    13:00 +1°C° 0 mm 4 mps 736 mmHg 89%
    14:00 +2°C° 0 mm 5 mps 736 mmHg 87%
    15:00 +1°C° 0.1 mm 5 mps 736 mmHg 89%
    16:00 +1°C° 0.1 mm 5 mps 736 mmHg 90%
    17:00 +1°C° 0.1 mm 5 mps 735 mmHg 91%
    18:00 +1°C° 0.2 mm 6 mps 735 mmHg 91%
    19:00 +1°C° 0.2 mm 6 mps 734 mmHg 91%
    20:00 0°C° 0.2 mm 7 mps 734 mmHg 91%
    21:00 0°C° 1.2 mm 7 mps 733 mmHg 91%
    22:00 0°C° 1.2 mm 7 mps 733 mmHg 91%
    23:00 0°C° 1.2 mm 8 mps 732 mmHg 91%

    21 November, Wednesday

    Time Temperature Precipitation Wind Pressure Humidity
    00:00 +2°C° 1.2 mm 7 mps 731 mmHg 91%
    01:00 +2°C° 1.2 mm 7 mps 730 mmHg 91%
    02:00 +2°C° 1.2 mm 7 mps 729 mmHg 91%
    03:00 +3°C° 0.3 mm 7 mps 728 mmHg 92%
    04:00 +3°C° 0.3 mm 7 mps 728 mmHg 93%
    05:00 +3°C° 0.3 mm 6 mps 727 mmHg 94%
    06:00 +4°C° 0.1 mm 6 mps 727 mmHg 95%
    07:00 +5°C° 0.1 mm 5 mps 727 mmHg 96%
    08:00 +5°C° 0.1 mm 4 mps 726 mmHg 96%
    09:00 +6°C° 0.1 mm 4 mps 726 mmHg 97%
    10:00 +7°C° 0.1 mm 4 mps 726 mmHg 97%
    11:00 +8°C° 0.1 mm 3 mps 726 mmHg 97%
    12:00 +9°C° 0.1 mm 3 mps 726 mmHg 97%
    13:00 +9°C° 0.1 mm 3 mps 725 mmHg 96%
    14:00 +9°C° 0.1 mm 3 mps 725 mmHg 96%
    15:00 +9°C° 0.1 mm 3 mps 725 mmHg 97%
    16:00 +10°C° 0.1 mm 3 mps 725 mmHg 97%
    17:00 +10°C° 0.1 mm 3 mps 725 mmHg 98%
    18:00 +9°C° 0.1 mm 2 mps 725 mmHg 98%
    19:00 +9°C° 0.1 mm 2 mps 725 mmHg 98%
    20:00 +9°C° 0.1 mm 2 mps 725 mmHg 98%
    21:00 +9°C° 0 mm 3 mps 726 mmHg 97%
    22:00 +8°C° 0 mm 3 mps 726 mmHg 95%
    23:00 +7°C° 0 mm 4 mps 727 mmHg 94%
    Show more